EHI
0 0 0 0 0 0 0 0 0 0 0 0 0 0 0 0 0 0 0 0 0 1 2 4 5 5 5 4 5 8 10 9 6 4 1 0 0 0 0 1 2 2 2 2 1 0 0 0 0
0 0 0 0 0 0 0 0 0 0 0 0 0 0 0 0 0 0 0 0 0 1 2 4 5 6 5 4 4 6 7 7 6 4 1 0 0 0 0 0 1 1 1 1 1 0 0 0 0
0 0 0 0 0 0 0 0 0 0 0 0 0 0 0 0 0 0 0 1 1 1 3 4 6 6 5 4 3 4 4 4 4 3 1 0 0 0 0 0 0 0 0 0 0 0 0 0 0
0 0 0 0 0 0 0 0 0 0 0 0 0 0 0 0 0 0 1 2 2 3 3 5 6 6 6 4 3 3 3 3 3 3 1 1 0 0 0 0 0 0 0 0 0 0 0 0 0
0 0 0 0 0 0 0 0 0 0 0 0 0 0 0 0 0 0 1 2 3 3 3 4 5 6 5 4 3 3 3 3 3 3 3 2 1 0 0 0 0 0 0 0 0 0 0 0 0
0 0 0 0 0 0 0 0 0 0 0 0 0 0 0 0 0 0 1 1 2 3 3 3 4 5 4 3 3 3 3 3 3 3 3 3 2 1 1 0 0 0 0 0 0 0 0 0 0
0 0 0 0 0 0 0 0 0 0 0 0 0 0 0 0 0 0 0 0 1 3 3 3 3 4 3 3 3 3 3 3 3 3 3 3 3 2 1 0 0 0 0 0 0 0 0 0 0
0 0 0 0 0 0 0 0 0 0 0 0 0 0 0 0 0 0 0 0 1 2 3 3 3 3 3 3 3 3 3 3 3 3 3 2 2 2 1 0 0 0 0 0 0 0 0 0 0
0 0 0 0 0 0 0 0 0 0 0 0 0 0 0 0 0 0 0 0 1 2 3 3 3 3 3 3 3 3 2 2 2 2 1 1 1 1 0 0 0 0 0 0 0 0 0 0 0
0 0 0 0 0 0 0 0 0 0 0 0 0 0 0 0 0 0 0 0 0 1 2 2 2 2 2 2 2 1 1 1 1 1 0 0 0 0 0 0 0 0 0 0 0 0 0 0 0
0 0 0 0 0 0 0 0 0 0 0 0 1 1 0 0 0 0 0 0 0 0 1 1 1 1 1 1 1 0 0 0 0 0 0 0 0 0 0 0 0 0 0 0 0 0 0 0 0
0 0 0 0 0 0 0 0 0 0 0 1 2 2 1 0 0 0 0 0 0 0 0 0 0 0 0 0 0 0 0 0 0 0 0 0 0 0 0 0 0 0 0 0 0 0 0 0 0
0 0 0 0 0 0 0 0 0 0 0 1 3 2 1 0 0 0 0 0 0 0 0 0 0 0 0 0 0 0 0 0 0 0 1 0 0 0 0 0 0 0 0 0 0 0 0 0 0
0 0 0 0 0 0 0 0 0 0 0 1 2 2 1 0 0 0 0 0 0 0 0 0 0 0 0 0 0 0 0 0 0 0 0 0 0 0 0 0 0 0 0 0 0 0 0 0 0
0 0 0 0 0 0 0 0 0 0 0 1 1 1 0 0 0 0 0 0 0 0 0 0 0 0 0 0 0 0 0 0 0 0 0 0 0 0 0 0 0 0 0 0 0 0 0 0 0
0 0 0 0 0 0 0 0 0 0 0 0 0 0 0 0 0 0 0 0 0 0 0 0 0 0 0 0 0 0 0 0 0 0 0 0 0 0 0 0 0 0 0 0 0 0 0 0 0
0 0 0 0 0 0 0 0 0 0 0 0 0 0 0 0 0 0 0 0 0 0 0 0 0 0 0 0 0 0 0 0 0 0 0 0 0 0 0 0 0 0 0 0 0 0 0 0 0
0 0 0 0 0 0 0 0 0 0 0 0 0 0 0 0 0 0 0 0 0 0 0 0 0 0 0 0 0 0 0 0 0 0 0 0 0 0 0 0 0 0 0 0 0 0 0 0 0
0 0 0 0 0 0 0 0 0 0 0 0 0 0 0 0 0 0 0 0 0 0 0 0 0 0 0 0 0 0 0 0 0 0 0 0 0 0 0 0 0 0 0 0 0 0 0 0 0
0 0 0 0 0 0 0 0 0 0 0 0 0 0 0 0 0 0 0 0 0 0 0 0 0 0 0 0 0 0 0 0 0 0 0 0 0 0 0 0 0 0 0 0 0 0 0 0 0
0 0 0 0 0 0 0 0 0 0 0 0 0 0 0 0 0 0 0 0 0 0 0 0 0 0 0 0 0 0 0 0 0 0 0 0 0 0 0 0 0 0 0 0 0 0 0 0 0
0 0 0 0 0 0 0 0 0 0 0 0 0 0 0 0 0 0 0 0 0 0 0 0 0 0 0 0 0 0 0 0 0 0 0 0 0 0 0 0 0 0 0 0 0 0 0 0 0
0 0 0 0 0 0 0 0 0 0 0 0 0 0 0 0 0 0 0 0 0 0 0 0 0 0 0 0 0 0 0 0 0 0 0 0 0 0 0 0 0 0 0 0 0 0 0 0 0
0 0 0 0 0 0 0 0 0 0 0 0 0 0 0 0 0 0 0 0 0 0 0 0 0 0 0 0 0 0 0 0 0 0 0 0 0 0 0 0 0 0 0 0 0 0 0 0 0
0 0 0 0 0 0 0 0 0 0 0 0 0 0 0 0 0 0 0 0 0 0 0 0 0 0 0 0 0 0 0 0 0 0 0 0 0 0 0 0 0 0 0 0 0 0 0 0 0
0 0 0 0 0 0 0 0 0 0 0 0 0 0 0 0 0 0 0 0 0 0 0 0 0 0 0 0 0 0 0 0 0 0 0 0 0 0 0 0 0 0 0 0 0 0 0 0 0
0 0 0 0 0 0 0 0 0 0 0 0 0 0 0 0 0 0 0 0 0 0 0 0 0 0 0 0 0 0 0 0 0 0 0 0 0 0 0 0 0 0 0 0 0 0 0 0 0
0 0 0 0 0 0 0 0 0 0 0 0 0 0 0 0 0 0 0 0 0 0 0 0 0 0 0 0 0 0 0 0 0 0 0 0 0 0 0 0 0 0 0 0 0 0 0 0 0
0 0 0 0 0 0 0 0 0 0 0 0 0 0 0 0 0 0 0 0 0 0 0 0 0 0 0 0 0 0 0 0 0 0 0 0 0 0 0 0 0 0 0 0 0 0 0 0 0
0 0 0 0 0 0 0 0 0 0 0 0 0 0 0 0 0 0 0 0 0 0 0 0 0 0 0 0 0 0 0 0 0 0 0 0 0 0 0 0 0 0 0 0 0 0 0 0 0
Wind_Speed
7 4 3 4 7 5 1 2 2 2 2 2 3 6 7 5 3 5 2 2 4 3 2 4 8 10 11 12 12 13 13 13 13 13 12 12 12 12 13 13 13 13 13 13 13 13 13 13 13
2 2 5 6 6 2 3 3 3 3 4 4 5 5 6 5 4 5 2 3 5 4 3 4 8 10 11 11 12 13 13 13 13 13 13 12 12 12 12 13 13 13 13 13 12 13 13 12 12
2 2 5 5 4 5 5 3 4 2 3 3 5 5 4 4 3 3 2 5 6 5 4 4 9 10 11 11 12 13 13 13 13 13 13 12 12 12 12 12 12 13 13 13 13 12 13 12 12
3 4 5 5 3 3 4 4 5 5 3 4 5 6 4 3 2 3 5 6 6 5 4 4 9 10 10 11 12 12 13 13 13 13 13 13 13 12 12 12 12 12 12 12 12 12 12 12 12
4 5 4 1 3 2 2 3 4 4 3 3 5 6 3 2 5 7 6 7 7 5 4 5 9 10 11 11 12 12 13 13 13 13 13 14 13 13 12 12 12 12 12 12 12 12 12 12 12
4 4 4 3 3 2 2 3 3 4 3 3 5 6 3 2 6 6 6 6 6 5 5 5 9 10 11 11 12 12 12 13 13 13 14 14 14 13 13 12 12 12 11 11 11 11 12 12 12
4 4 4 5 3 3 3 3 4 4 4 3 6 7 4 3 4 6 6 6 5 5 5 5 5 7 9 10 11 12 12 12 13 13 13 14 14 13 13 13 12 11 11 11 11 11 11 11 11
4 5 3 4 5 4 2 3 2 4 4 2 4 8 6 6 6 7 7 6 6 5 5 5 5 5 5 5 10 11 11 12 12 13 13 13 13 12 13 12 13 12 11 11 11 11 11 11 11
4 4 3 5 6 4 3 3 2 2 5 3 2 3 6 11 9 8 6 5 5 5 4 4 4 4 4 4 7 8 9 10 10 10 12 10 6 6 7 11 13 13 12 11 11 11 11 11 10
4 4 5 3 4 5 3 4 5 4 4 3 3 5 10 11 10 9 7 6 4 3 3 3 4 4 4 4 4 3 4 5 6 5 6 5 4 5 7 10 12 13 12 10 11 11 10 8 5
3 5 3 1 1 3 4 3 2 7 3 6 9 11 11 11 9 8 7 6 5 4 3 3 3 3 3 3 3 2 2 3 4 5 5 4 4 4 5 4 5 6 8 5 6 6 5 4 4
3 1 2 1 1 2 3 4 2 3 5 5 10 14 13 12 10 9 8 7 5 4 3 3 3 3 3 3 3 3 2 3 3 4 5 4 3 4 4 3 3 4 3 4 4 3 4 5 4
3 2 1 1 3 3 4 3 2 1 2 6 10 12 12 11 9 7 7 6 6 5 3 3 3 3 3 3 2 3 3 3 3 3 4 4 3 4 3 3 3 4 4 4 4 4 4 4 4
3 3 1 1 1 1 3 1 2 3 5 8 10 10 9 10 9 7 7 6 6 5 4 3 4 3 3 3 3 2 2 3 3 3 4 4 3 3 3 3 3 4 4 3 3 4 3 3 3
2 2 1 1 2 2 4 1 4 5 7 8 8 8 8 8 8 9 8 8 7 6 5 4 4 4 4 4 3 3 2 3 3 3 4 4 4 4 3 3 3 3 3 4 3 4 3 3 4
2 2 2 4 4 3 5 7 5 7 9 8 7 7 7 6 7 7 7 7 6 6 5 5 4 4 4 3 3 2 2 3 3 3 3 5 5 4 3 3 3 3 3 3 3 3 3 3 3
1 2 4 4 4 4 5 7 4 5 9 8 8 7 7 6 5 5 6 6 7 6 6 5 4 4 4 3 3 3 2 3 2 3 3 4 5 5 3 3 3 3 3 3 3 3 3 3 4
5 4 4 6 4 5 5 7 5 5 7 8 7 7 7 8 7 6 6 5 6 6 5 5 5 4 4 3 3 2 3 2 2 2 3 4 4 4 4 3 3 3 3 3 3 3 3 2 3
5 4 4 4 3 5 7 8 8 6 7 8 8 8 8 8 6 6 6 6 5 5 5 5 5 4 3 3 2 1 1 1 2 2 3 4 4 4 4 3 3 3 3 3 3 2 3 3 3
4 3 3 2 1 4 4 8 7 8 10 10 11 10 10 7 6 6 6 6 5 6 5 5 5 4 4 2 1 1 1 1 1 1 3 3 4 4 3 3 3 3 2 3 3 3 2 3 3
5 6 5 3 2 1 1 6 4 5 5 6 8 9 9 11 10 9 8 7 6 6 6 5 5 4 3 3 2 2 2 2 2 2 2 3 3 3 3 3 3 3 2 2 2 2 2 2 2
6 4 4 3 2 3 2 5 6 4 4 7 8 8 9 9 9 9 9 8 7 6 5 5 5 4 3 3 3 3 2 1 0 0 1 2 3 3 3 3 3 3 2 2 2 2 1 1 2
4 2 3 3 3 1 1 3 8 1 5 8 8 9 9 9 10 10 10 9 7 6 5 5 5 4 3 3 3 3 2 1 1 1 1 2 2 2 3 3 2 3 2 3 3 2 2 1 1
3 4 4 4 3 3 5 5 7 4 6 4 5 7 8 8 8 8 7 6 5 5 5 5 5 4 4 3 3 3 3 2 1 1 1 1 2 2 3 2 2 2 2 2 2 2 2 1 2
4 5 2 2 1 6 3 4 9 5 3 4 6 6 7 7 8 8 8 8 7 7 6 5 6 5 4 3 3 3 3 3 2 1 0 1 1 2 2 2 2 2 2 2 2 2 3 2 2
4 6 6 5 5 4 2 6 7 3 2 1 3 5 5 6 6 8 8 8 8 7 7 6 6 5 4 4 3 2 2 2 1 1 1 1 1 2 2 2 2 2 2 3 2 2 3 3 2
5 3 3 4 1 2 5 5 5 1 1 1 3 4 5 5 6 6 6 7 7 7 7 7 6 5 4 4 3 2 2 2 1 1 1 1 1 2 2 2 2 3 3 3 3 2 3 3 3
3 5 4 4 4 4 5 4 5 4 4 3 3 4 4 4 4 4 5 5 5 5 5 5 5 5 4 4 3 2 2 2 1 1 1 1 2 2 2 2 3 3 3 3 3 3 3 3 3
4 3 3 3 3 5 4 7 4 6 5 5 5 4 4 4 4 4 3 3 3 4 4 4 5 4 4 4 3 2 2 1 1 1 1 2 2 2 2 3 3 3 3 3 3 4 4 4 4
4 5 6 5 5 4 3 7 3 2 3 4 4 3 3 3 3 3 3 3 3 3 4 4 4 4 4 4 3 3 2 1 1 1 1 2 2 2 3 3 3 4 4 3 3 4 5 4 5
Wind_Direction
327 345 67 59 59 59 191 242 179 105 78 68 73 89 104 98 118 141 152 122 103 83 41 45 56 58 58 58 56 54 52 50 49 49 51 55 58 58 56 54 54 53 53 54 55 55 57 56 57
336 19 58 62 93 125 250 239 182 173 153 134 74 74 82 78 71 101 113 111 99 83 53 48 62 61 59 57 56 54 52 50 47 47 47 52 56 57 56 55 53 52 52 53 54 53 53 54 55
346 69 82 80 115 177 200 209 180 146 124 106 79 53 79 101 98 110 127 117 91 75 52 53 65 63 62 60 58 55 53 50 48 47 46 49 53 55 54 53 52 52 50 51 53 53 51 52 55
69 54 61 83 177 216 188 186 160 133 92 70 103 83 63 35 106 119 118 105 90 73 57 62 67 65 63 61 59 57 54 52 51 48 47 48 51 53 52 51 51 52 51 50 51 53 51 50 54
66 83 79 87 218 235 206 175 152 125 125 101 110 108 90 31 91 102 99 95 94 77 58 63 69 66 64 61 59 57 55 53 51 49 48 47 48 50 50 51 51 52 52 51 49 50 49 49 50
68 79 110 194 217 223 212 173 140 114 118 110 113 115 122 108 103 106 97 89 92 87 67 62 70 68 64 61 59 57 56 53 51 49 48 45 43 46 46 46 48 50 49 49 49 47 48 47 47
114 114 157 176 183 224 216 159 146 143 129 150 133 118 134 148 126 113 101 93 85 84 75 57 56 60 64 63 59 58 55 53 50 48 47 44 42 41 43 42 43 47 48 47 47 46 45 44 45
129 117 142 177 178 216 197 134 136 137 142 110 118 139 170 175 138 112 99 91 83 76 74 66 58 52 48 53 59 57 54 51 49 47 45 43 40 38 40 37 38 41 44 44 44 44 43 39 41
103 98 188 198 186 198 167 130 76 81 106 82 65 138 149 139 131 114 102 88 82 75 68 70 66 58 55 53 55 51 51 49 46 42 43 39 28 25 31 35 37 37 40 41 41 42 40 37 37
101 160 208 209 183 167 160 145 149 111 97 97 80 88 120 134 136 132 131 126 116 101 78 74 73 65 59 59 51 41 41 38 38 34 31 30 26 26 32 33 35 34 35 36 39 40 38 34 26
128 174 189 234 178 145 140 134 139 133 174 189 166 149 144 143 144 144 145 145 143 132 104 84 82 75 68 62 55 42 38 35 37 36 30 28 28 24 26 25 25 22 27 24 26 29 25 24 23
129 180 171 209 151 132 142 135 117 176 208 175 156 151 152 155 159 158 155 153 143 129 119 102 91 84 74 67 59 53 44 39 36 31 29 31 30 25 20 23 22 21 16 18 20 22 18 20 20
182 186 164 134 95 104 100 114 138 225 173 129 135 145 157 162 162 157 151 146 141 135 128 113 99 93 86 76 61 55 45 42 34 28 27 34 38 27 18 19 26 21 17 19 18 20 20 18 15
171 151 159 147 119 120 130 150 124 216 149 135 144 155 162 164 161 152 151 152 152 148 140 124 110 100 90 82 71 64 53 44 38 33 27 33 35 28 20 22 23 20 14 14 15 17 19 14 12
120 103 347 250 169 172 118 284 215 186 147 149 157 162 161 165 163 166 168 163 162 155 143 132 122 103 95 88 78 69 56 50 43 35 30 32 32 27 24 24 21 12 7 10 19 21 21 20 15
106 120 229 246 181 167 152 242 225 173 155 165 169 168 167 171 170 169 165 160 158 151 146 139 125 113 103 94 85 76 64 56 43 36 34 31 30 28 26 31 21 5 10 12 19 20 19 12 5
97 205 221 242 193 155 177 233 221 177 167 178 180 178 173 173 173 170 163 161 159 154 149 141 131 124 109 97 88 77 64 56 45 39 37 29 26 24 29 29 17 10 20 17 13 18 18 7 355
201 206 218 222 204 162 201 237 230 198 187 188 185 183 182 184 187 172 159 155 155 151 147 143 136 128 116 103 88 72 58 47 44 42 36 28 24 23 27 27 19 20 29 19 12 12 12 6 347
176 185 217 231 187 180 217 239 239 210 196 197 194 191 193 196 181 163 159 152 147 148 147 146 141 142 129 120 110 93 64 44 38 39 35 29 25 27 31 23 17 22 34 18 11 8 9 6 357
202 211 235 284 192 195 234 254 242 211 205 200 197 196 195 186 170 169 164 161 158 157 155 152 152 151 148 140 134 127 130 86 43 26 29 27 27 24 31 28 21 11 22 25 17 16 2 352 8
219 208 216 226 334 251 290 288 245 231 207 205 201 194 190 188 182 177 173 171 165 164 166 160 159 151 144 130 112 96 72 53 37 22 19 15 22 21 20 23 24 9 11 9 355 360 10 340 338
228 209 191 187 162 257 187 272 271 226 222 216 209 196 195 191 182 178 175 173 174 174 166 156 152 144 140 134 134 134 129 130 197 339 353 1 17 17 15 19 21 13 5 357 341 356 345 329 325
204 167 161 173 167 283 233 220 278 244 236 231 214 203 199 189 181 179 179 176 172 164 160 155 148 143 139 138 141 135 127 129 95 48 27 8 4 10 10 15 13 6 1 353 343 339 340 318 290
131 78 65 57 84 256 213 190 269 232 228 234 211 199 192 183 178 175 169 159 159 157 155 153 150 149 147 145 144 146 148 140 116 61 24 349 344 352 359 5 7 359 350 343 333 332 326 310 294
108 106 64 347 298 248 193 196 248 251 237 218 200 193 184 174 169 167 165 166 167 165 163 160 160 159 158 155 156 160 163 160 165 177 208 307 326 330 332 345 345 340 336 331 330 337 327 303 283
179 155 164 201 224 265 220 226 252 273 273 229 169 161 158 167 169 173 176 174 173 172 169 167 168 165 164 165 167 163 163 160 170 179 203 251 277 288 308 319 327 327 331 329 328 327 311 308 288
150 194 169 137 157 260 255 269 296 292 18 103 135 142 163 171 172 175 175 175 176 176 176 174 170 169 172 171 164 164 165 161 171 186 199 250 276 296 319 319 321 324 326 320 318 309 301 303 292
152 152 122 145 178 242 271 257 248 239 225 203 183 181 183 168 167 170 172 176 178 176 169 164 165 172 172 170 174 173 171 171 170 170 228 261 282 298 308 313 314 315 316 313 310 303 295 291 288
158 160 158 154 177 181 247 263 233 215 201 194 199 189 178 174 174 171 167 159 154 151 153 161 167 166 170 173 171 167 175 176 171 199 237 258 282 296 298 300 301 301 299 296 294 294 291 284 288
181 181 158 170 219 197 203 265 301 208 189 176 179 174 164 164 163 160 154 141 140 151 165 173 176 176 179 174 167 172 174 174 189 227 249 263 275 286 291 294 296 296 301 296 290 289 292 281 281